This demonstration page uses our WeatherBlox Daily Observations layout. Learn more.

Left ArrowRight Arrow

31.84235, -102.49876

Hourly Observations for May 7, 2017

Temp ( °F °C ) Dew Point ( °F °C ) Humidity (%) Winds ( mph kmh ) Pressure ( in mb ) Visibility ( mi km ) Precip ( " mm )
12:53 am 00:53 Clear 74 23.3 43 6.1 33 33 SSE 17 28 29.76 1008 10 16 0.00 0.00
1:53 am 01:53 Clear 72 22.2 43 6.1 35 35 SSE 16 26 29.75 1007 10 16 0.00 0.00
2:53 am 02:53 Clear 71 21.7 43 6.1 36 36 SSE 14 22 29.73 1007 10 16 0.00 0.00
3:53 am 03:53 Clear 70 21.1 42 5.6 37 37 S 13 20 29.73 1007 10 16 0.00 0.00
4:53 am 04:53 Clear 69 20.6 42 5.6 38 38 SSE 15 24 29.72 1007 10 16 0.00 0.00
5:53 am 05:53 Clear 68 20 44 6.7 42 42 SSE 13 20 29.73 1007 10 16 0.00 0.00
6:53 am 06:53 Clear 68 20 45 7.2 44 44 SSE 14 22 29.75 1007 10 16 0.00 0.00
7:53 am 07:53 Sunny 66 18.9 45 7.2 47 47 SE 9 15 29.78 1009 10 16 0.00 0.00
8:53 am 08:53 Sunny 70 21.1 49 9.4 47 47 S 18 30 29.80 1009 10 16 0.00 0.00
9:53 am 09:53 Sunny 76 24.4 52 11.1 43 43 S 26 43 29.80 1009 10 16 0.00 0.00
10:53 am 10:53 Sunny 79 26.1 52 11.1 39 39 S 22 35 29.80 1009 10 16 0.00 0.00
11:53 am 11:53 Sunny 81 27.2 52 11.1 37 37 S 22 35 29.80 1009 10 16 0.00 0.00
12:53 pm 12:53 Sunny 83 28.3 50 10 32 32 S 26 43 29.79 1009 10 16 0.00 0.00
1:53 pm 13:53 Sunny 86 30 48 8.9 27 27 SSE 25 41 29.76 1008 10 16 0.00 0.00
2:53 pm 14:53 Sunny 88 31.1 42 5.6 20 20 S 22 35 29.73 1007 10 16 0.00 0.00
3:53 pm 15:53 Sunny 89 31.7 39 3.9 17 17 S 28 44 29.71 1006 10 16 0.00 0.00
4:53 pm 16:53 Sunny 88 31.1 38 3.3 17 17 SSE 23 37 29.68 1005 10 16 0.00 0.00
5:53 pm 17:53 Sunny 87 30.6 37 2.8 17 17 SSE 25 41 29.66 1005 10 16 0.00 0.00
6:53 pm 18:53 Sunny 85 29.4 39 3.9 20 20 S 23 37 29.67 1005 10 16 0.00 0.00
7:53 pm 19:53 Sunny 82 27.8 41 5 23 23 SSE 24 39 29.69 1006 10 16 0.00 0.00
8:53 pm 20:53 Clear 79 26.1 44 6.7 29 29 SSE 23 37 29.69 1005 10 16 0.00 0.00
9:53 pm 21:53 Clear 77 25 44 6.7 31 31 SSE 23 37 29.71 1006 10 16 0.00 0.00
10:53 pm 22:53 Clear 74 23.3 45 7.2 36 36 SSE 21 33 29.74 1007 10 16 0.00 0.00
11:53 pm 23:53 Clear 73 22.8 46 7.8 38 38 SSE 20 31 29.74 1007 10 16 0.00 0.00

Powered by AerisWeather